Tracking 17143 objects as of 26-May-2015
HD Live streaming from Space Station

UNHA 3 R/B

Track UNHA 3 R/B now!
10-day predictions
UNHA 3 R/B is classified as:


NORAD ID: 39027
Int'l Code: 2012-072B
Perigee: 492.3 km
Apogee: 578.5 km
Inclination: 97.3 °
Period: 95.2 minutes
Semi major axis: 6906 km
RCS: 1.274 m2 (large)
Launch date: December 12, 2012
Source: North Korea (NKOR)

Note: This is a ROCKET BODY
Your satellite tracking list
Your tracking list is empty





NASA's NSSDC Master Catalog

Two Line Element Set (TLE):
1 39027U 12072B   15145.65255182  .00001458  00000-0  83370-4 0  9996
2 39027 097.2938 173.7029 0062433 335.4896 024.3370 15.12598820134969

Source of the keplerian elements: AFSPC

N2YO: 285